GOMAO EGKK-EDDH

Flight info

Callsign GOMAO
Flight time 1h 45m
Altitude 45000
Route FRANE M604 PAAVO Q295 SOMVA DCT MAVAS DCT TULIP Y12 SPY N873 ANDIK M105 RIBSO RIBSO3P
Aircraft C25C/M-SDE2E3FGHRWXY/LB1

Departure

Time 2026-04-23 18:19
Airport London Gatwick Airport (EGKK)

Arrival

Time 2026-04-23 20:04
Airport Hamburg Helmut Schmidt Airport (EDDH)
Time Latitude Longitude Altitude Speed Heading
2026-04-23 17:59 51.15319 -0.18003 198 ft 0 kts 347°
2026-04-23 18:06 51.15318 -0.18002 198 ft 2 kts 347°
2026-04-23 18:07 51.15307 -0.17989 205 ft 2 kts 248°
2026-04-23 18:07 51.15294 -0.17996 204 ft 2 kts 162°
2026-04-23 18:07 51.15278 -0.17990 201 ft 2 kts 167°
2026-04-23 18:07 51.15262 -0.17991 198 ft 2 kts 200°
2026-04-23 18:08 51.15256 -0.17998 204 ft 0 kts 230°
2026-04-23 18:09 51.15247 -0.18012 200 ft 8 kts 225°
2026-04-23 18:09 51.15214 -0.18087 198 ft 8 kts 247°
2026-04-23 18:09 51.15202 -0.18170 198 ft 8 kts 257°
2026-04-23 18:09 51.15190 -0.18256 198 ft 8 kts 257°
2026-04-23 18:10 51.15182 -0.18343 198 ft 8 kts 260°
2026-04-23 18:10 51.15172 -0.18433 201 ft 8 kts 257°
2026-04-23 18:10 51.15157 -0.18538 203 ft 15 kts 257°
2026-04-23 18:10 51.15135 -0.18697 198 ft 15 kts 258°
2026-04-23 18:11 51.15114 -0.18859 208 ft 15 kts 258°
2026-04-23 18:11 51.15092 -0.19017 198 ft 14 kts 256°
2026-04-23 18:11 51.15069 -0.19171 198 ft 14 kts 259°
2026-04-23 18:11 51.15050 -0.19325 201 ft 14 kts 258°
2026-04-23 18:12 51.15022 -0.19511 202 ft 21 kts 255°
2026-04-23 18:12 51.14993 -0.19734 199 ft 20 kts 258°
2026-04-23 18:12 51.14963 -0.19955 198 ft 20 kts 257°
2026-04-23 18:12 51.14932 -0.20173 198 ft 20 kts 256°
2026-04-23 18:13 51.14901 -0.20388 198 ft 20 kts 259°
2026-04-23 18:13 51.14873 -0.20601 198 ft 19 kts 257°
2026-04-23 18:13 51.14842 -0.20809 208 ft 19 kts 254°
2026-04-23 18:13 51.14815 -0.21012 198 ft 19 kts 258°
2026-04-23 18:14 51.14781 -0.21209 204 ft 18 kts 255°
2026-04-23 18:14 51.14742 -0.21396 201 ft 17 kts 219°
2026-04-23 18:14 51.14728 -0.21404 198 ft 0 kts 189°
2026-04-23 18:15 51.14720 -0.21406 198 ft 1 kts 185°
2026-04-23 18:15 51.14719 -0.21406 198 ft 3 kts 184°
2026-04-23 18:16 51.14677 -0.21385 203 ft 7 kts 139°
2026-04-23 18:16 51.14632 -0.21334 198 ft 8 kts 166°
2026-04-23 18:16 51.14621 -0.21329 198 ft 2 kts 167°
2026-04-23 18:17 51.14610 -0.21325 199 ft 0 kts 165°
2026-04-23 18:17 51.14609 -0.21325 199 ft 0 kts 165°
2026-04-23 18:17 51.14589 -0.21317 203 ft 8 kts 165°
2026-04-23 18:18 51.14541 -0.21273 206 ft 9 kts 134°
2026-04-23 18:18 51.14519 -0.21188 202 ft 8 kts 82°
2026-04-23 18:18 51.14528 -0.21115 202 ft 7 kts 77°
2026-04-23 18:18 51.14611 -0.20539 202 ft 104 kts 76°
2026-04-23 18:19 51.14794 -0.19204 955 ft 122 kts 79°
2026-04-23 18:19 51.14891 -0.17765 1763 ft 150 kts 81°
2026-04-23 18:19 51.15162 -0.15874 2013 ft 207 kts 75°
2026-04-23 18:19 51.15602 -0.13378 2016 ft 242 kts 77°
2026-04-23 18:20 51.15936 -0.10926 2011 ft 212 kts 78°
2026-04-23 18:20 51.16240 -0.08743 2011 ft 202 kts 78°
2026-04-23 18:20 51.16535 -0.06548 2005 ft 203 kts 78°
2026-04-23 18:20 51.16831 -0.04347 2009 ft 204 kts 80°
2026-04-23 18:21 51.16868 -0.02111 2102 ft 205 kts 96°
2026-04-23 18:21 51.16481 0.00098 2272 ft 217 kts 112°
2026-04-23 18:21 51.15592 0.02181 3028 ft 245 kts 127°
2026-04-23 18:21 51.14317 0.04083 3049 ft 250 kts 140°
2026-04-23 18:22 51.13101 0.05926 3049 ft 237 kts 115°
2026-04-23 18:22 51.12863 0.08440 3055 ft 229 kts 90°
2026-04-23 18:22 51.13061 0.10920 3055 ft 224 kts 74°
2026-04-23 18:22 51.13761 0.13116 3065 ft 221 kts 61°
2026-04-23 18:23 51.14289 0.14503 3064 ft 220 kts 61°
2026-04-23 18:23 51.16142 0.19399 4444 ft 223 kts 68°
2026-04-23 18:24 51.16711 0.24757 5085 ft 265 kts 92°
2026-04-23 18:24 51.16603 0.27665 5085 ft 255 kts 92°
2026-04-23 18:24 51.16569 0.30410 5085 ft 241 kts 90°
2026-04-23 18:25 51.16591 0.35577 5076 ft 227 kts 90°
2026-04-23 18:25 51.16596 0.38071 5074 ft 222 kts 90°
2026-04-23 18:25 51.16593 0.40512 5070 ft 218 kts 90°
2026-04-23 18:25 51.16597 0.42905 5072 ft 214 kts 90°
2026-04-23 18:26 51.16593 0.45266 5073 ft 212 kts 90°
2026-04-23 18:26 51.16598 0.47582 5070 ft 211 kts 90°
2026-04-23 18:26 51.16592 0.49903 5074 ft 209 kts 90°
2026-04-23 18:26 51.16743 0.52185 5067 ft 209 kts 70°
2026-04-23 18:27 51.17525 0.54145 5074 ft 210 kts 50°
2026-04-23 18:27 51.18783 0.55367 5078 ft 217 kts 23°
2026-04-23 18:27 51.20247 0.55967 5079 ft 217 kts 18°
2026-04-23 18:27 51.21704 0.56503 5075 ft 217 kts 17°
2026-04-23 18:28 51.23175 0.57024 5073 ft 217 kts 17°
2026-04-23 18:28 51.24643 0.57572 5070 ft 217 kts 18°
2026-04-23 18:28 51.26150 0.58139 5070 ft 226 kts 18°
2026-04-23 18:28 51.27710 0.58723 5078 ft 234 kts 17°
2026-04-23 18:29 51.29320 0.59324 5075 ft 241 kts 17°
2026-04-23 18:29 51.30968 0.59942 5072 ft 246 kts 17°
2026-04-23 18:29 51.32648 0.60561 5071 ft 249 kts 17°
2026-04-23 18:29 51.34360 0.61208 5683 ft 262 kts 16°
2026-04-23 18:30 51.36252 0.61918 6057 ft 282 kts 17°
2026-04-23 18:30 51.38059 0.62575 6053 ft 250 kts 17°
2026-04-23 18:30 51.39692 0.63182 6062 ft 247 kts 17°
2026-04-23 18:30 51.41334 0.63828 7629 ft 234 kts 17°
2026-04-23 18:31 51.42946 0.64432 9109 ft 242 kts 18°
2026-04-23 18:31 51.44604 0.65068 10540 ft 248 kts 17°
2026-04-23 18:31 51.46361 0.65735 11515 ft 273 kts 17°
2026-04-23 18:31 51.48296 0.66479 12298 ft 300 kts 17°
2026-04-23 18:32 51.50424 0.67281 12993 ft 328 kts 17°
2026-04-23 18:32 51.52737 0.68169 13611 ft 352 kts 16°
2026-04-23 18:32 51.55108 0.69054 14700 ft 357 kts 16°
2026-04-23 18:32 51.57550 0.69997 15678 ft 365 kts 16°
2026-04-23 18:33 51.60047 0.70943 16679 ft 372 kts 15°
2026-04-23 18:33 51.62599 0.71922 17612 ft 381 kts 15°
2026-04-23 18:33 51.65219 0.72918 18533 ft 389 kts 15°
2026-04-23 18:33 51.67883 0.73936 19306 ft 397 kts 15°
2026-04-23 18:34 51.70601 0.74973 20093 ft 404 kts 15°
2026-04-23 18:34 51.73318 0.76018 20848 ft 410 kts 15°
2026-04-23 18:34 51.76125 0.77089 21568 ft 417 kts 15°
2026-04-23 18:34 51.78971 0.78185 22264 ft 423 kts 15°
2026-04-23 18:35 51.81818 0.79530 22901 ft 427 kts 25°
2026-04-23 18:35 51.83515 0.81138 23324 ft 428 kts 36°
2026-04-23 18:35 51.86056 0.83722 23926 ft 433 kts 39°
2026-04-23 18:35 51.87987 0.87379 24454 ft 427 kts 65°
2026-04-23 18:36 51.89055 0.91837 25011 ft 424 kts 77°
2026-04-23 18:36 51.89809 0.96459 25537 ft 426 kts 80°
2026-04-23 18:36 51.90520 1.01137 26023 ft 430 kts 79°
2026-04-23 18:36 51.91393 1.05795 26485 ft 436 kts 73°
2026-04-23 18:37 51.92593 1.10342 26925 ft 441 kts 69°
2026-04-23 18:37 51.93916 1.14842 27347 ft 444 kts 69°
2026-04-23 18:37 51.95158 1.19438 27736 ft 445 kts 72°
2026-04-23 18:37 51.96256 1.24147 28117 ft 447 kts 73°
2026-04-23 18:38 51.97414 1.28858 28478 ft 451 kts 72°
2026-04-23 18:38 51.98643 1.33558 28894 ft 452 kts 71°
2026-04-23 18:38 51.99838 1.38213 29376 ft 451 kts 72°
2026-04-23 18:38 52.01008 1.42916 29855 ft 450 kts 73°
2026-04-23 18:39 52.02181 1.47637 30304 ft 449 kts 73°
2026-04-23 18:39 52.03361 1.52327 30728 ft 448 kts 72°
2026-04-23 18:39 52.04540 1.57015 31092 ft 448 kts 73°
2026-04-23 18:39 52.05708 1.61700 31476 ft 447 kts 73°
2026-04-23 18:40 52.06874 1.66386 31861 ft 446 kts 73°
2026-04-23 18:40 52.08033 1.71059 32230 ft 445 kts 73°
2026-04-23 18:40 52.09185 1.75698 32591 ft 444 kts 73°
2026-04-23 18:40 52.10333 1.80338 32939 ft 443 kts 73°
2026-04-23 18:41 52.11482 1.84987 33270 ft 442 kts 73°
2026-04-23 18:41 52.12614 1.89579 33597 ft 441 kts 73°
2026-04-23 18:41 52.13768 1.94277 33913 ft 440 kts 73°
2026-04-23 18:41 52.14853 1.98856 34202 ft 438 kts 76°
2026-04-23 18:42 52.15790 2.03559 34476 ft 436 kts 77°
2026-04-23 18:42 52.16774 2.08249 34719 ft 437 kts 75°
2026-04-23 18:42 52.17849 2.12893 34961 ft 437 kts 74°
2026-04-23 18:42 52.18907 2.17562 35203 ft 436 kts 75°
2026-04-23 18:43 52.19909 2.22194 35442 ft 436 kts 76°
2026-04-23 18:43 52.20920 2.26859 35677 ft 435 kts 75°
2026-04-23 18:43 52.21943 2.31506 35913 ft 435 kts 75°
2026-04-23 18:43 52.22964 2.36143 36150 ft 435 kts 75°
2026-04-23 18:44 52.23978 2.40802 36381 ft 434 kts 75°
2026-04-23 18:44 52.24986 2.45445 36610 ft 434 kts 75°
2026-04-23 18:44 52.25993 2.50089 36802 ft 434 kts 75°
2026-04-23 18:44 52.27006 2.54748 36947 ft 436 kts 75°
2026-04-23 18:45 52.28013 2.59421 37179 ft 436 kts 75°
2026-04-23 18:45 52.29023 2.64090 37415 ft 435 kts 75°
2026-04-23 18:45 52.30024 2.68759 37653 ft 435 kts 75°
2026-04-23 18:45 52.31028 2.73421 37884 ft 435 kts 75°
2026-04-23 18:46 52.32024 2.78084 38117 ft 434 kts 75°
2026-04-23 18:46 52.33010 2.82688 38344 ft 434 kts 75°
2026-04-23 18:46 52.34002 2.87346 38567 ft 434 kts 75°
2026-04-23 18:46 52.34997 2.92021 38813 ft 433 kts 75°
2026-04-23 18:47 52.35985 2.96675 39042 ft 433 kts 75°
2026-04-23 18:47 52.36967 3.01320 39272 ft 431 kts 75°
2026-04-23 18:47 52.37949 3.05954 39465 ft 430 kts 75°
2026-04-23 18:47 52.38926 3.10597 39628 ft 431 kts 75°
2026-04-23 18:48 52.39902 3.15235 39797 ft 431 kts 75°
2026-04-23 18:48 52.40873 3.19871 39968 ft 431 kts 74°
2026-04-23 18:48 52.41843 3.24500 40136 ft 431 kts 74°
2026-04-23 18:48 52.42814 3.29149 40307 ft 431 kts 74°
2026-04-23 18:49 52.43768 3.33737 40473 ft 431 kts 74°
2026-04-23 18:49 52.44740 3.38399 40635 ft 431 kts 74°
2026-04-23 18:49 52.45702 3.43047 40808 ft 431 kts 74°
2026-04-23 18:49 52.46668 3.47707 40978 ft 431 kts 74°
2026-04-23 18:50 52.47300 3.50782 41095 ft 431 kts 73°
2026-04-23 18:50 52.48589 3.57026 41290 ft 432 kts 74°
2026-04-23 18:50 52.49548 3.61696 41458 ft 432 kts 73°
2026-04-23 18:50 52.50496 3.66319 41627 ft 432 kts 74°
2026-04-23 18:51 52.51450 3.70990 41790 ft 432 kts 73°
2026-04-23 18:51 52.52406 3.75671 41960 ft 432 kts 74°
2026-04-23 18:51 52.53361 3.80356 42122 ft 432 kts 73°
2026-04-23 18:51 52.54310 3.85036 42293 ft 432 kts 74°
2026-04-23 18:52 52.55257 3.89720 42455 ft 432 kts 73°
2026-04-23 18:52 52.56206 3.94404 42625 ft 432 kts 73°
2026-04-23 18:52 52.57152 3.99097 42779 ft 432 kts 74°
2026-04-23 18:52 52.58096 4.03790 42988 ft 431 kts 74°
2026-04-23 18:53 52.59034 4.08477 43175 ft 430 kts 72°
2026-04-23 18:53 52.59970 4.13151 43339 ft 430 kts 72°
2026-04-23 18:53 52.60897 4.17784 43504 ft 430 kts 73°
2026-04-23 18:53 52.61828 4.22459 43669 ft 430 kts 72°
2026-04-23 18:54 52.62761 4.27161 43833 ft 431 kts 73°
2026-04-23 18:54 52.63689 4.31838 43993 ft 431 kts 72°
2026-04-23 18:54 52.64616 4.36520 44163 ft 431 kts 73°
2026-04-23 18:54 52.65542 4.41216 44329 ft 431 kts 72°
2026-04-23 18:55 52.66464 4.45905 44491 ft 431 kts 72°
2026-04-23 18:55 52.67385 4.50599 44659 ft 431 kts 72°
2026-04-23 18:55 52.68306 4.55291 44813 ft 431 kts 72°
2026-04-23 18:55 52.69224 4.59994 44984 ft 431 kts 72°
2026-04-23 18:56 52.69843 4.63171 45088 ft 431 kts 72°
2026-04-23 18:56 52.71054 4.69400 45279 ft 431 kts 72°
2026-04-23 18:56 52.71972 4.74125 45357 ft 432 kts 72°
2026-04-23 18:57 52.73811 4.83642 45384 ft 438 kts 72°
2026-04-23 18:57 52.75663 4.93275 45410 ft 443 kts 72°
2026-04-23 18:58 52.77518 5.02973 45412 ft 441 kts 72°
2026-04-23 18:58 52.79351 5.12606 45416 ft 442 kts 72°
2026-04-23 18:59 52.81180 5.22262 45418 ft 432 kts 72°
2026-04-23 18:59 52.82925 5.31525 45396 ft 412 kts 72°
2026-04-23 19:00 52.84610 5.40365 45399 ft 394 kts 73°
2026-04-23 19:00 52.86187 5.48881 45392 ft 380 kts 73°
2026-04-23 19:01 52.87718 5.57091 45389 ft 367 kts 73°
2026-04-23 19:01 52.89190 5.65067 45389 ft 357 kts 73°
2026-04-23 19:02 52.90380 5.71528 45388 ft 349 kts 73°
2026-04-23 19:02 52.92007 5.80402 45382 ft 339 kts 72°
2026-04-23 19:03 52.93360 5.87803 45381 ft 332 kts 73°
2026-04-23 19:03 52.94669 5.95013 45384 ft 325 kts 73°
2026-04-23 19:04 52.95964 6.02154 45120 ft 325 kts 73°
2026-04-23 19:04 52.96635 6.05879 43977 ft 353 kts 74°
2026-04-23 19:04 52.97368 6.09944 43029 ft 381 kts 74°
2026-04-23 19:04 52.98151 6.14309 42062 ft 407 kts 75°
2026-04-23 19:05 52.98985 6.18961 40998 ft 433 kts 75°
2026-04-23 19:05 53.00705 6.28557 40926 ft 430 kts 75°
2026-04-23 19:05 53.01551 6.33316 40787 ft 430 kts 75°
2026-04-23 19:06 53.02388 6.38032 40679 ft 430 kts 76°
2026-04-23 19:06 53.03221 6.42743 39943 ft 423 kts 76°
2026-04-23 19:06 53.04054 6.47461 38691 ft 428 kts 75°
2026-04-23 19:06 53.04892 6.52218 37293 ft 429 kts 76°
2026-04-23 19:07 53.05729 6.56996 35849 ft 431 kts 76°
2026-04-23 19:07 53.06570 6.61793 34384 ft 434 kts 76°
2026-04-23 19:07 53.07418 6.66649 32596 ft 438 kts 75°
2026-04-23 19:07 53.08269 6.71531 30794 ft 441 kts 75°
2026-04-23 19:08 53.09125 6.76445 28661 ft 443 kts 75°
2026-04-23 19:08 53.09977 6.81376 26528 ft 446 kts 74°
2026-04-23 19:08 53.10834 6.86337 24722 ft 444 kts 74°
2026-04-23 19:08 53.11650 6.91053 24346 ft 409 kts 74°
2026-04-23 19:09 53.12395 6.95402 24357 ft 374 kts 74°
2026-04-23 19:09 53.13086 6.99430 24352 ft 350 kts 74°
2026-04-23 19:09 53.13733 7.03216 24347 ft 329 kts 74°
2026-04-23 19:09 53.14347 7.06806 24343 ft 320 kts 74°
2026-04-23 19:10 53.14959 7.10416 24339 ft 328 kts 74°
2026-04-23 19:10 53.15590 7.14111 24339 ft 335 kts 74°
2026-04-23 19:10 53.16226 7.17879 24340 ft 341 kts 73°
2026-04-23 19:10 53.16878 7.21711 24342 ft 346 kts 74°
2026-04-23 19:11 53.17535 7.25604 24344 ft 351 kts 73°
2026-04-23 19:11 53.18201 7.29554 24352 ft 355 kts 74°
2026-04-23 19:11 53.18871 7.33543 24358 ft 359 kts 74°
2026-04-23 19:11 53.19546 7.37572 24360 ft 362 kts 74°
2026-04-23 19:12 53.19998 7.40270 24356 ft 364 kts 74°
2026-04-23 19:12 53.20904 7.45687 24356 ft 367 kts 74°
2026-04-23 19:12 53.21590 7.49806 24358 ft 369 kts 74°
2026-04-23 19:12 53.22275 7.53943 24356 ft 371 kts 74°
2026-04-23 19:13 53.22967 7.58098 24355 ft 372 kts 74°
2026-04-23 19:13 53.23911 7.62112 24334 ft 372 kts 56°
2026-04-23 19:13 53.25666 7.65276 24338 ft 372 kts 41°
2026-04-23 19:13 53.27630 7.68086 24336 ft 372 kts 37°
2026-04-23 19:14 53.29957 7.69886 24333 ft 371 kts 10°
2026-04-23 19:14 53.32485 7.70239 24334 ft 370 kts
2026-04-23 19:14 53.35050 7.69975 24340 ft 369 kts 353°
2026-04-23 19:14 53.37613 7.69498 24348 ft 370 kts 353°
2026-04-23 19:15 53.40175 7.69065 24349 ft 370 kts 353°
2026-04-23 19:15 53.42739 7.68634 24348 ft 371 kts 353°
2026-04-23 19:15 53.45307 7.68196 24355 ft 371 kts 353°
2026-04-23 19:15 53.47879 7.67756 24356 ft 371 kts 353°
2026-04-23 19:16 53.50455 7.67321 24355 ft 372 kts 353°
2026-04-23 19:16 53.53033 7.66897 24354 ft 372 kts 353°
2026-04-23 19:16 53.55610 7.66467 24355 ft 372 kts 354°
2026-04-23 19:17 53.60762 7.65638 24354 ft 372 kts 353°
2026-04-23 19:17 53.63338 7.65220 24353 ft 372 kts 353°
2026-04-23 19:17 53.65914 7.64798 24353 ft 372 kts 353°
2026-04-23 19:17 53.68487 7.64387 24353 ft 372 kts 353°
2026-04-23 19:18 53.71029 7.63976 24352 ft 371 kts 353°
2026-04-23 19:18 53.73555 7.63562 23651 ft 360 kts 353°
2026-04-23 19:18 53.76061 7.63156 22417 ft 359 kts 353°
2026-04-23 19:18 53.78514 7.62756 21391 ft 350 kts 354°
2026-04-23 19:19 53.83280 7.61911 19421 ft 336 kts 353°
2026-04-23 19:19 53.85573 7.61478 18449 ft 328 kts 354°
2026-04-23 19:20 53.89295 7.60945 16673 ft 320 kts
2026-04-23 19:20 53.91289 7.62436 15808 ft 315 kts 36°
2026-04-23 19:20 53.92604 7.65368 14849 ft 318 kts 64°
2026-04-23 19:20 53.92856 7.69046 14339 ft 313 kts 96°
2026-04-23 19:21 53.92113 7.72239 14327 ft 289 kts 114°
2026-04-23 19:23 53.91473 7.74211 14328 ft 272 kts 116°
2026-04-23 19:23 53.90543 7.76852 14327 ft 252 kts 116°
2026-04-23 19:24 53.88792 7.81598 14319 ft 224 kts 118°
2026-04-23 19:24 53.87981 7.83773 14319 ft 213 kts 118°
2026-04-23 19:24 53.86859 7.88067 14324 ft 186 kts 89°
2026-04-23 19:25 53.86733 7.92221 14318 ft 170 kts 83°
2026-04-23 19:25 53.86622 7.96131 14325 ft 175 kts 84°
2026-04-23 19:26 53.86290 8.00680 14338 ft 220 kts 109°
2026-04-23 19:26 53.85727 8.03142 14337 ft 227 kts 94°
2026-04-23 19:27 53.85213 8.08679 14337 ft 248 kts 93°
2026-04-23 19:27 53.84471 8.17776 14336 ft 270 kts 92°
2026-04-23 19:28 53.83966 8.24198 14321 ft 279 kts 92°
2026-04-23 19:28 53.83441 8.30792 14317 ft 286 kts 92°
2026-04-23 19:29 53.83181 8.34136 14317 ft 288 kts 92°
2026-04-23 19:29 53.82666 8.40903 14300 ft 292 kts 92°
2026-04-23 19:30 53.82162 8.47698 14300 ft 294 kts 92°
2026-04-23 19:30 53.81912 8.51135 14302 ft 295 kts 92°
2026-04-23 19:30 53.81405 8.58040 14302 ft 296 kts 92°
2026-04-23 19:31 53.81152 8.61504 14302 ft 296 kts 92°
2026-04-23 19:31 53.80900 8.64967 14301 ft 297 kts 92°
2026-04-23 19:31 53.80645 8.68429 14300 ft 297 kts 93°
2026-04-23 19:31 53.80387 8.71907 14302 ft 297 kts 92°
2026-04-23 19:32 53.80137 8.75340 14301 ft 297 kts 92°
2026-04-23 19:32 53.79883 8.78711 14297 ft 276 kts 92°
2026-04-23 19:32 53.79635 8.81855 14285 ft 265 kts 92°
2026-04-23 19:32 53.79391 8.84894 14282 ft 256 kts 93°
2026-04-23 19:33 53.79153 8.87831 14281 ft 249 kts 92°
2026-04-23 19:33 53.78912 8.90707 14295 ft 243 kts 93°
2026-04-23 19:33 53.78442 8.96227 14279 ft 235 kts 92°
2026-04-23 19:34 53.78208 8.98935 14280 ft 231 kts 92°
2026-04-23 19:34 53.77977 9.01606 14278 ft 228 kts 93°
2026-04-23 19:34 53.77510 9.06840 14273 ft 222 kts 92°
2026-04-23 19:35 53.77278 9.09423 14267 ft 220 kts 93°
2026-04-23 19:35 53.77050 9.11973 14270 ft 219 kts 92°
2026-04-23 19:35 53.76864 9.14504 14270 ft 215 kts 88°
2026-04-23 19:35 53.76818 9.17009 14272 ft 211 kts 83°
2026-04-23 19:36 53.76901 9.19473 14269 ft 208 kts 78°
2026-04-23 19:36 53.77108 9.21843 14260 ft 205 kts 73°
2026-04-23 19:36 53.77441 9.24174 14257 ft 202 kts 67°
2026-04-23 19:36 53.77894 9.26413 14266 ft 199 kts 62°
2026-04-23 19:37 53.78461 9.28538 14262 ft 197 kts 57°
2026-04-23 19:37 53.79134 9.30533 14256 ft 194 kts 51°
2026-04-23 19:37 53.79910 9.32391 14256 ft 192 kts 46°
2026-04-23 19:37 53.80776 9.34089 14198 ft 188 kts 41°
2026-04-23 19:38 53.81726 9.35626 13931 ft 192 kts 35°
2026-04-23 19:38 53.82784 9.37008 13934 ft 193 kts 30°
2026-04-23 19:38 53.83647 9.38768 13938 ft 208 kts 69°
2026-04-23 19:38 53.83458 9.41258 13961 ft 227 kts 114°
2026-04-23 19:39 53.82271 9.43045 13967 ft 235 kts 158°
2026-04-23 19:39 53.80680 9.43131 13957 ft 230 kts 200°
2026-04-23 19:39 53.79248 9.42107 13983 ft 223 kts 208°
2026-04-23 19:39 53.77872 9.40983 13774 ft 219 kts 211°
2026-04-23 19:40 53.76509 9.39824 13503 ft 219 kts 211°
2026-04-23 19:40 53.75155 9.38659 13252 ft 218 kts 211°
2026-04-23 19:40 53.73796 9.37504 13134 ft 217 kts 211°
2026-04-23 19:40 53.72457 9.36364 12881 ft 216 kts 211°
2026-04-23 19:41 53.71112 9.35223 12624 ft 216 kts 211°
2026-04-23 19:41 53.69771 9.34102 12384 ft 214 kts 211°
2026-04-23 19:41 53.68544 9.32839 12307 ft 197 kts 237°
2026-04-23 19:41 53.68247 9.30886 12295 ft 162 kts 294°
2026-04-23 19:42 53.68944 9.29667 12278 ft 145 kts 348°
2026-04-23 19:42 53.69892 9.30080 12194 ft 149 kts 22°
2026-04-23 19:42 53.70856 9.30706 12086 ft 148 kts 14°
2026-04-23 19:42 53.71816 9.31354 12006 ft 148 kts 17°
2026-04-23 19:43 53.72772 9.31988 11900 ft 147 kts 17°
2026-04-23 19:43 53.73722 9.32633 11727 ft 147 kts 15°
2026-04-23 19:43 53.74702 9.33061 11572 ft 145 kts
2026-04-23 19:43 53.75695 9.33465 11530 ft 145 kts
2026-04-23 19:44 53.76674 9.33838 11493 ft 144 kts
2026-04-23 19:44 53.77653 9.34251 11436 ft 146 kts 15°
2026-04-23 19:44 53.78539 9.35227 11395 ft 155 kts 30°
2026-04-23 19:44 53.79385 9.36261 11346 ft 147 kts 30°
2026-04-23 19:45 53.80183 9.37295 11259 ft 143 kts 29°
2026-04-23 19:45 53.80966 9.38303 11159 ft 141 kts 30°
2026-04-23 19:45 53.81662 9.39604 11059 ft 162 kts 56°
2026-04-23 19:45 53.81991 9.41448 10972 ft 164 kts 68°
2026-04-23 19:46 53.82249 9.43306 10815 ft 165 kts 69°
2026-04-23 19:46 53.82472 9.45217 10673 ft 165 kts 69°
2026-04-23 19:46 53.82718 9.47110 10517 ft 165 kts 69°
2026-04-23 19:46 53.82948 9.49005 10372 ft 164 kts 68°
2026-04-23 19:47 53.83112 9.50251 10275 ft 164 kts 69°
2026-04-23 19:47 53.83423 9.52764 9985 ft 161 kts 68°
2026-04-23 19:47 53.83656 9.54642 9602 ft 163 kts 69°
2026-04-23 19:47 53.83894 9.56503 9263 ft 161 kts 68°
2026-04-23 19:48 53.84116 9.58339 8922 ft 161 kts 68°
2026-04-23 19:48 53.84355 9.60176 8583 ft 160 kts 68°
2026-04-23 19:48 53.84574 9.62019 8249 ft 159 kts 67°
2026-04-23 19:48 53.84813 9.63852 7962 ft 159 kts 68°
2026-04-23 19:49 53.85031 9.65684 7676 ft 158 kts 66°
2026-04-23 19:49 53.85263 9.67497 7392 ft 158 kts 69°
2026-04-23 19:49 53.85473 9.69249 7302 ft 147 kts 65°
2026-04-23 19:49 53.85707 9.71051 7276 ft 165 kts 69°
2026-04-23 19:50 53.85951 9.73009 7274 ft 175 kts 67°
2026-04-23 19:50 53.86205 9.75085 7274 ft 184 kts 69°
2026-04-23 19:50 53.86476 9.77254 7274 ft 191 kts 69°
2026-04-23 19:50 53.86732 9.79515 7273 ft 200 kts 75°
2026-04-23 19:51 53.86587 9.81962 7271 ft 214 kts 92°
2026-04-23 19:51 53.86426 9.84473 7267 ft 216 kts 88°
2026-04-23 19:51 53.86250 9.87037 7258 ft 221 kts 90°
2026-04-23 19:51 53.86071 9.89642 7248 ft 224 kts 90°
2026-04-23 19:52 53.85942 9.91384 7248 ft 226 kts 90°
2026-04-23 19:52 53.85693 9.94905 7247 ft 223 kts 90°
2026-04-23 19:52 53.85508 9.97487 7248 ft 219 kts 89°
2026-04-23 19:52 53.85326 10.00039 7244 ft 217 kts 90°
2026-04-23 19:53 53.85150 10.02533 7244 ft 213 kts 89°
2026-04-23 19:53 53.84969 10.05022 6926 ft 215 kts 89°
2026-04-23 19:53 53.84794 10.07530 6625 ft 214 kts 89°
2026-04-23 19:53 53.84610 10.10027 6311 ft 213 kts 89°
2026-04-23 19:54 53.84432 10.12513 5996 ft 213 kts 90°
2026-04-23 19:54 53.84251 10.14996 5693 ft 211 kts 89°
2026-04-23 19:54 53.84085 10.17450 5406 ft 207 kts 85°
2026-04-23 19:54 53.84372 10.19714 5001 ft 193 kts 62°
2026-04-23 19:55 53.85094 10.21621 4767 ft 189 kts 40°
2026-04-23 19:55 53.85929 10.23271 4581 ft 183 kts 43°
2026-04-23 19:55 53.86738 10.24928 4275 ft 182 kts 41°
2026-04-23 19:55 53.87538 10.26566 4081 ft 177 kts 42°
2026-04-23 19:56 53.88022 10.28462 4023 ft 181 kts 75°
2026-04-23 19:56 53.88165 10.30592 3993 ft 186 kts 72°
2026-04-23 19:56 53.88343 10.32856 3993 ft 203 kts 75°
2026-04-23 19:56 53.88473 10.35339 3992 ft 226 kts 90°
2026-04-23 19:57 53.87706 10.37715 3988 ft 246 kts 137°
2026-04-23 19:57 53.86147 10.38830 3992 ft 246 kts 178°
2026-04-23 19:57 53.85015 10.38601 3988 ft 242 kts 200°
2026-04-23 19:57 53.82890 10.37490 3991 ft 241 kts 203°
2026-04-23 19:58 53.81409 10.36270 3988 ft 233 kts 224°
2026-04-23 19:58 53.80168 10.34522 3992 ft 232 kts 229°
2026-04-23 19:58 53.79012 10.32638 3987 ft 230 kts 232°
2026-04-23 19:58 53.77876 10.30736 4006 ft 230 kts 232°
2026-04-23 19:59 53.76748 10.28825 4007 ft 229 kts 232°
2026-04-23 19:59 53.75693 10.26829 4007 ft 227 kts 237°
2026-04-23 19:59 53.74682 10.24834 4004 ft 216 kts 237°
2026-04-23 19:59 53.73711 10.22914 4002 ft 214 kts 237°
2026-04-23 20:00 53.72739 10.21025 3995 ft 212 kts 237°
2026-04-23 20:00 53.71783 10.19143 3989 ft 210 kts 239°
2026-04-23 20:00 53.70936 10.17177 3991 ft 204 kts 243°
2026-04-23 20:00 53.70146 10.15341 3985 ft 187 kts 242°
2026-04-23 20:01 53.69344 10.13545 3495 ft 199 kts 240°
2026-04-23 20:01 53.68462 10.11533 2703 ft 209 kts 245°
2026-04-23 20:01 53.67792 10.09595 2315 ft 171 kts 252°
2026-04-23 20:01 53.67256 10.07888 1443 ft 167 kts 252°
2026-04-23 20:02 53.66722 10.06271 1156 ft 153 kts 239°
2026-04-23 20:02 53.66067 10.04859 817 ft 148 kts 231°
2026-04-23 20:02 53.65409 10.03617 626 ft 137 kts 236°
2026-04-23 20:02 53.64851 10.02556 549 ft 115 kts 233°
2026-04-23 20:03 53.64347 10.01501 386 ft 113 kts 239°
2026-04-23 20:03 53.63875 10.00498 245 ft 109 kts 234°
2026-04-23 20:03 53.63422 9.99594 49 ft 93 kts 231°
2026-04-23 20:03 53.63065 9.98889 37 ft 65 kts 233°
2026-04-23 20:04 53.62855 9.98517 37 ft 30 kts 206°
2026-04-23 20:04 53.62679 9.98485 36 ft 13 kts 158°
2026-04-23 20:04 53.62595 9.98547 36 ft 13 kts 154°
2026-04-23 20:04 53.62521 9.98640 42 ft 14 kts 109°
2026-04-23 20:05 53.62524 9.98744 36 ft 14 kts 81°
2026-04-23 20:05 53.62581 9.98862 37 ft 8 kts 351°
2026-04-23 20:05 53.62617 9.98877 37 ft 8 kts 36°
2026-04-23 20:05 53.62652 9.98953 37 ft 2 kts 56°